sat.trackr.live / text

‹ back to catalog

ONEWEB-0629

NORAD 55170 · 2023-004AG

PAYLOAD ACTIVE UNKNOWN

§ Identity

Operator
Country
UK
Launch date
2023-01-10
Launch site
AFETR
Launch vehicle
Mass (kg)
RCS (m²)

Purposes: comms

External: N2YO · Heavens-Above · Gunter

§ Orbital elements

Epoch: 2026-09-20T00:29:57.806880Z

Period
109.15 min
Inclination
87.9201°
Eccentricity
0.0002160
Mean motion
13.19250743 rev/d
Perigee alt
1,185.9 km
Apogee alt
1,189.2 km
Semi-major
7,565.7 km
B*
9.0390e-5
RAAN
347.0325°
Arg perigee
99.6456°
Mean anomaly
260.4921°
Rev number
18,007

§ Raw data

ONEWEB-06291 55170U 23004AG  26263.02080795  .00000049  00000+0  90390-4 0  99942 55170  87.9201 347.0325 0002160  99.6456 260.4921 13.19250743180074

JSON: /api/v1/satellites/55170 · /tle

For live sub-satellite position, see the globe view (requires WebGL).

§ Visibility from observer

Set your observer location to see the next 7 days of passes ≥ 10°. The values pass through the URL so the page stays shareable.

No JS? Fill the form by hand. The geolocation button needs JavaScript.